DW8427 Weather Reports


time (UTC)temp
F
wind
direction
speed
knots
gust
knots
rain 1hr
in
rain 24hr
in
rain mn
in
humidity
%
barometer
mb
20260508191534 72 293 0.0 2.6 0.00 0.00 0.00 63 1016.9
20260508190037 72 96 0.0 3.5 0.00 0.00 0.00 64 1017.0
20260508184531 71 284 0.0 3.5 0.00 0.00 0.00 63 1017.1
20260508183028 70 290 0.0 3.5 0.00 0.00 0.00 65 1017.1
20260508181528 70 219 0.0 0.9 0.00 0.00 0.00 65 1017.3
20260508180028 67 135 0.0 4.3 0.00 0.00 0.00 69 1017.2
20260508174541 66 93 0.0 3.5 0.00 0.00 0.00 70 1017.5
20260508173020 66 256 0.0 0.9 0.00 0.00 0.00 72 1017.6
20260508171519 64 136 0.0 3.5 0.00 0.00 0.00 74 1017.7
20260508170016 61 104 0.9 4.3 0.00 0.00 0.00 77 1017.6
20260508164514 61 259 0.0 4.3 0.00 0.00 0.00 79 1017.5
20260508163011 59 152 0.0 2.6 0.00 0.00 0.00 81 1017.5
20260508161534 58 191 0.9 4.3 0.00 0.00 0.00 81 1017.5
20260508160010 58 122 0.0 5.2 0.00 0.00 0.00 82 1017.6
20260508154510 56 110 0.0 5.2 0.00 0.00 0.00 84 1017.6
20260508153011 55 115 0.0 4.3 0.00 0.00 0.00 87 1017.6
20260508151528 54 106 0.9 4.3 0.00 0.00 0.00 86 1017.6
20260508150010 54 108 2.6 5.2 0.00 0.00 0.00 87 1017.4
20260508144504 53 110 1.7 7.0 0.00 0.00 0.00 88 1017.3
20260508143004 53 108 0.9 5.2 0.00 0.00 0.00 88 1017.3
20260508141505 53 122 0.9 4.3 0.00 0.00 0.00 88 1017.2
20260508140111 53 112 0.9 4.3 0.00 0.00 0.00 89 1016.9
20260508134619 53 143 0.9 4.3 0.00 0.00 0.00 89 1016.8
20260508133111 53 109 0.9 2.6 0.00 0.00 0.00 89 1016.8
20260508131554 53 139 0.0 3.5 0.00 0.00 0.00 89 1016.7
20260508130051 53 144 0.0 3.5 0.00 0.00 0.00 89 1016.6
20260508124549 53 109 0.0 1.7 0.00 0.00 0.00 89 1016.5
20260508123048 53 131 0.0 2.6 0.00 0.00 0.00 89 1016.5
20260508121550 53 120 0.0 2.6 0.00 0.00 0.00 89 1016.2
20260508120050 54 136 0.0 1.7 0.00 0.00 0.00 88 1016.3
20260508114542 54 116 0.0 1.7 0.00 0.00 0.00 88 1016.2
20260508113052 54 109 0.0 2.6 0.00 0.00 0.00 88 1016.1
20260508111539 54 169 0.0 3.5 0.00 0.00 0.00 88 1016.1
20260508110038 54 133 0.0 3.5 0.00 0.00 0.00 87 1016.0
20260508104536 55 117 0.0 1.7 0.00 0.00 0.00 87 1016.1
20260508103036 55 146 0.0 1.7 0.00 0.00 0.00 87 1016.1
20260508101542 55 105 0.0 1.7 0.00 0.00 0.00 86 1016.1
20260508100031 56 101 0.0 0.9 0.00 0.00 0.00 86 1016.1
20260508094529 56 86 0.0 0.9 0.00 0.00 0.00 86 1016.0
20260508093030 56 104 0.0 2.6 0.00 0.00 0.00 86 1016.0
20260508091545 56 101 0.0 1.7 0.00 0.00 0.00 85 1016.1
20260508090024 56 129 0.0 2.6 0.00 0.00 0.00 85 1015.9
20260508084521 56 108 0.0 1.7 0.00 0.00 0.00 85 1015.8
20260508083029 57 105 0.0 2.6 0.00 0.00 0.00 84 1015.9
20260508081517 57 127 0.9 4.3 0.00 0.00 0.00 84 1015.8
20260508080013 58 138 0.9 5.2 0.00 0.00 0.00 83 1015.8
20260508074510 59 101 0.0 3.5 0.00 0.00 0.00 83 1015.6
20260508073009 60 124 0.0 5.2 0.00 0.00 0.00 83 1015.6
20260508071504 61 156 0.9 4.3 0.00 0.00 0.00 82 1015.5
20260508064600 62 117 0.0 2.6 0.00 0.00 0.00 80 1015.3
20260508063001 62 117 0.0 4.3 0.00 0.00 0.00 80 1015.3
20260508061559 63 96 0.0 3.5 0.00 0.00 0.00 78 1015.3
20260508060058 63 131 0.0 2.6 0.00 0.00 0.00 77 1015.3
20260508054558 64 127 0.0 2.6 0.00 0.00 0.00 77 1015.4
20260508053102 65 131 0.0 0.0 0.00 0.00 0.00 77 1015.3
20260508051618 66 99 0.0 3.5 0.00 0.00 0.00 75 1015.3
20260508050057 67 150 0.0 2.6 0.00 0.00 0.00 74 1015.2
20260508044556 68 137 0.0 2.6 0.00 0.00 0.00 73 1015.1
20260508043055 70 106 0.0 0.9 0.00 0.00 0.00 72 1015.0
20260508041555 71 153 0.0 0.9 0.00 0.00 0.00 71 1014.8
20260508040054 72 74 0.0 1.7 0.00 0.00 0.00 69 1014.7
20260508034554 73 99 0.0 2.6 0.00 0.00 0.00 68 1014.5
20260508033054 75 32 0.0 0.9 0.00 0.00 0.00 67 1014.3
20260508031552 77 205 0.0 2.6 0.00 0.00 0.00 63 1014.1
20260508030054 79 161 0.0 0.0 0.00 0.00 0.00 58 1013.9
20260508024551 81 126 0.0 1.7 0.00 0.00 0.00 55 1013.8
20260508023052 82 283 0.0 1.7 0.00 0.00 0.00 53 1013.7
20260508021553 83 133 0.0 2.6 0.00 0.00 0.00 52 1013.7
20260508014548 85 133 0.0 1.7 0.00 0.00 0.00 48 1013.7
20260508013047 84 127 0.0 0.0 0.00 0.00 0.00 50 1013.8
20260508011550 85 287 0.0 2.6 0.00 0.00 0.00 48 1013.9
20260508010058 86 134 0.0 0.9 0.00 0.00 0.00 49 1013.9
20260508004544 86 219 0.0 0.9 0.00 0.00 0.00 48 1014.0
20260508003042 85 290 1.7 5.2 0.00 0.00 0.00 48 1014.1
20260508001539 85 349 0.0 0.9 0.00 0.00 0.00 49 1014.2
20260508000045 85 136 0.0 3.5 0.00 0.00 0.00 49 1014.2
20260507234538 85 103 0.0 0.0 0.00 0.00 0.00 49 1014.2
20260507233039 83 109 0.0 2.6 0.00 0.00 0.00 50 1014.4
20260507231532 84 131 0.0 0.9 0.00 0.00 0.00 50 1014.5
20260507230046 83 214 0.0 2.6 0.00 0.00 0.00 50 1014.7
20260507224532 82 284 0.0 4.3 0.00 0.00 0.00 52 1014.9
20260507223057 82 237 0.0 3.5 0.00 0.00 0.00 51 1015.2
20260507221524 82 286 0.9 3.5 0.00 0.00 0.00 52 1015.4
20260507220021 82 283 0.0 0.9 0.00 0.00 0.00 52 1015.7
20260507214518 81 281 0.0 4.3 0.00 0.00 0.00 53 1015.9
20260507213017 81 128 0.0 3.5 0.00 0.00 0.00 53 1016.1
20260507211514 79 86 0.0 4.3 0.00 0.00 0.00 54 1016.4
20260507210017 79 283 0.9 5.2 0.00 0.00 0.00 54 1016.5
20260507204508 79 335 0.0 4.3 0.00 0.00 0.00 55 1016.7
20260507203017 79 289 0.0 3.5 0.00 0.00 0.00 55 1016.8
20260507201503 78 178 0.0 2.6 0.00 0.00 0.00 56 1017.0
20260507200000 78 278 0.0 1.7 0.00 0.00 0.00 57 1017.1
20260507194559 76 281 0.0 4.3 0.00 0.00 0.00 57 1017.3
20260507193057 76 287 0.0 4.3 0.00 0.00 0.00 58 1017.6